Погода в Гаркуше

Россия / Краснодарский край     45°19′11″N   36°51′18″E
темп.,
°C
ветер,
м/с
пор.,
м/с
влажн.,
%
обл.,
%
осадки,
мм/ч
давл.,
гПа
погр.,
м
7 мая, пт
пт700:00+13зюз44710 0.0 101465
03:00+13з337245 0.0 101459
06:00+13зсз33775 0.0 101680
09:00+14зсз23660 0.0 1017140
12:00+15ссз12655 0.0 1018279
15:00+16ююз33605 0.0 1018170
18:00+16ю566193 0.0 1017234
21:00+14ю58795 0.0 1017152
8 мая, сб
сб800:00+14ююв7118572 0.0 1016249
03:00+13ююв81286100 0.0 1015301
06:00+14ююв81286100 0.0 1014311
09:00+15ю81175100 0.0 1013267
12:00+17ю8106777 0.0 1013190
15:00+17ю79650 0.0 1012152
18:00+16ю55725 0.0 1011112
21:00+14зюз2284100 0.0 101211
9 мая, вс
вс900:00+13с121489100 0.0 1011553
03:00+12с121590100 4.8 1013989
06:00+10с141585100 5.5 10151136
09:00+9с121579100 7.9 10181286
12:00+11ссз101273100 0.9 10201312
15:00+12ссз10125820 1.1 10231787
18:00+13ссз59525 0.0 10241421
21:00+13ссз585796 0.0 1026996
10 мая, пн
пн1000:00+13ссз586220 0.3 1026624
03:00+12с69644 0.6 1026923
06:00+12с79612 0.1 10261187
09:00+12с9105686 0.2 10271525
12:00+12с9105467 0.0 10261617
15:00+13ссз71051100 0.0 10251735
18:00+13сз685598 0.0 10241014
21:00+13с4665100 0.0 1023266
11 мая, вт
вт1100:00+13с7963100 0.0 1022963
03:00+12ссз81075100 0.3 1020890
06:00+12ссз91079100 1.1 1019911
09:00+11ссз8988100 2.4 1019734
12:00+12ссз7888100 0.8 1018654
15:00+13сз6687100 1.4 1017601
18:00+13ссз4684100 1.3 1017488
21:00+12юв018054 1.4 1017179